,,PA_Meas_PMT16A,,PR_Meas_QMR101_102,,RH_Meas_QMH101,,SR_Meas_QMS101,,TA_Meas_QMH101,,GenWind,,GenWind,
time,status,PA,status,PR,status,RH,status,SR,status,TA,status,DirAvg,status,SpdAvg,
2013-08-31, 00:00:05,VALID,917.799,VALID,0,VALID,96.7107,VALID,0,VALID,21.1266,VALID,28,VALID,0,
2013-08-31, 00:01:05,VALID,917.769,VALID,0,VALID,96.7107,VALID,0,VALID,21.1071,VALID,28,VALID,0,
2013-08-31, 00:02:05,VALID,917.791,VALID,0,VALID,96.703,VALID,0,VALID,21.1266,VALID,347,VALID,0,
2013-08-31, 00:03:05,VALID,917.756,VALID,0,VALID,96.7107,VALID,0,VALID,21.0096,VALID,313,VALID,0,
2013-08-31, 00:04:05,VALID,917.752,VALID,0,VALID,96.703,VALID,0,VALID,21.0096,VALID,313,VALID,0,
2013-08-31, 00:05:05,VALID,917.759,VALID,0,VALID,96.7259,VALID,0,VALID,21.0291,VALID,321,VALID,0,
2013-08-31, 00:06:05,VALID,917.75,VALID,0,VALID,96.7183,VALID,0,VALID,21.0096,VALID,358,VALID,0,
2013-08-31, 00:07:05,VALID,917.767,VALID,0,VALID,96.7335,VALID,0,VALID,21.0291,VALID,20,VALID,0,
2013-08-31, 00:08:05,VALID,917.765,VALID,0,VALID,96.7107,VALID,0,VALID,20.9901,VALID,12,VALID,0,
2013-08-31, 00:09:05,VALID,917.732,VALID,0,VALID,96.7335,VALID,0,VALID,20.9901,VALID,12,VALID,0,
2013-08-31, 00:10:05,VALID,917.699,VALID,0,VALID,96.7411,VALID,0,VALID,21.0096,VALID,340,VALID,0,
2013-08-31, 00:11:05,VALID,917.687,VALID,0,VALID,96.7335,VALID,0,VALID,20.9511,VALID,339,VALID,0,
2013-08-31, 00:12:05,VALID,917.656,VALID,0,VALID,96.7335,VALID,0,VALID,20.9316,VALID,43,VALID,0,
2013-08-31, 00:13:05,VALID,917.596,VALID,0,VALID,96.7183,VALID,0,VALID,20.9316,VALID,43,VALID,0,
2013-08-31, 00:14:05,VALID,917.557,VALID,0,VALID,96.7259,VALID,0,VALID,20.9511,VALID,43,VALID,0,
2013-08-31, 00:15:05,VALID,917.537,VALID,0,VALID,96.7564,VALID,0,VALID,20.9706,VALID,48,VALID,0,
2013-08-31, 00:16:05,VALID,917.492,VALID,0,VALID,96.7411,VALID,0,VALID,20.9316,VALID,55,VALID,0,
2013-08-31, 00:17:05,VALID,917.491,VALID,0,VALID,96.7335,VALID,0,VALID,20.8535,VALID,55,VALID,0,
2013-08-31, 00:18:05,VALID,917.461,VALID,0,VALID,96.7411,VALID,0,VALID,20.8535,VALID,55,VALID,0,
2013-08-31, 00:19:05,VALID,917.43,VALID,0,VALID,96.7488,VALID,0,VALID,20.8925,VALID,55,VALID,0,
2013-08-31, 00:20:05,VALID,917.433,VALID,0,VALID,96.7411,VALID,0,VALID,20.834,VALID,55,VALID,0,
2013-08-31, 00:21:05,VALID,917.405,VALID,0,VALID,96.7411,VALID,0,VALID,20.834,VALID,7,VALID,0,
2013-08-31, 00:22:05,VALID,917.397,VALID,0,VALID,96.7488,VALID,0,VALID,20.8145,VALID,8,VALID,0,
2013-08-31, 00:23:05,VALID,917.399,VALID,0,VALID,96.7564,VALID,0,VALID,20.7755,VALID,8,VALID,0,
2013-08-31, 00:24:05,VALID,917.344,VALID,0,VALID,96.764,VALID,0,VALID,20.795,VALID,8,VALID,0,
2013-08-31, 00:25:05,VALID,917.316,VALID,0,VALID,96.7488,VALID,0,VALID,20.8145,VALID,8,VALID,0,
2013-08-31, 00:26:05,VALID,917.263,VALID,0,VALID,96.7793,VALID,0,VALID,20.7755,VALID,8,VALID,0,
2013-08-31, 00:27:05,VALID,917.29,VALID,0,VALID,96.7716,VALID,0,VALID,20.7755,VALID,8,VALID,0,
2013-08-31, 00:28:05,VALID,917.262,VALID,0,VALID,96.7716,VALID,0,VALID,20.795,VALID,8,VALID,0,
2013-08-31, 00:29:05,VALID,917.224,VALID,0,VALID,96.764,VALID,0,VALID,20.834,VALID,8,VALID,0,
2013-08-31, 00:30:05,VALID,917.226,VALID,0,VALID,96.764,VALID,0,VALID,20.7966,VALID,8,VALID,0,
2013-08-31, 00:31:05,VALID,917.231,VALID,0,VALID,96.7945,VALID,0,VALID,20.795,VALID,8,VALID,0,
2013-08-31, 00:32:05,VALID,917.208,VALID,0,VALID,96.7793,VALID,0,VALID,20.795,VALID,8,VALID,0,
2013-08-31, 00:33:05,VALID,917.215,VALID,0,VALID,96.7869,VALID,0,VALID,20.795,VALID,8,VALID,0,
2013-08-31, 00:34:05,VALID,917.151,VALID,0,VALID,96.7945,VALID,0,VALID,20.795,VALID,8,VALID,0,
2013-08-31, 00:35:05,VALID,917.143,VALID,0,VALID,96.7793,VALID,0,VALID,20.7755,VALID,8,VALID,0,
2013-08-31, 00:36:05,VALID,917.088,VALID,0,VALID,96.7869,VALID,0,VALID,20.7755,VALID,8,VALID,0,
2013-08-31, 00:37:05,VALID,917.021,VALID,0,VALID,96.8021,VALID,0,VALID,20.795,VALID,8,VALID,0,
2013-08-31, 00:38:05,VALID,916.995,VALID,0,VALID,96.8021,VALID,0,VALID,20.7755,VALID,8,VALID,0,
2013-08-31, 00:39:05,VALID,916.998,VALID,0,VALID,96.7869,VALID,0,VALID,20.8161,VALID,8,VALID,0,
2013-08-31, 00:40:05,VALID,916.967,VALID,0,VALID,96.8098,VALID,0,VALID,20.795,VALID,8,VALID,0,
2013-08-31, 00:41:05,VALID,916.991,VALID,0,VALID,96.7869,VALID,0,VALID,20.795,VALID,8,VALID,0,
2013-08-31, 00:42:05,VALID,917.011,VALID,0,VALID,96.8021,VALID,0,VALID,20.8161,VALID,8,VALID,0,
2013-08-31, 00:43:04,VALID,917.008,VALID,0,VALID,96.8174,VALID,0,VALID,20.834,VALID,8,VALID,0,
2013-08-31, 00:44:04,VALID,917.011,VALID,0,VALID,96.8021,VALID,0,VALID,20.8746,VALID,8,VALID,0,
2013-08-31, 00:45:04,VALID,916.977,VALID,0,VALID,96.8174,VALID,0,VALID,20.873,VALID,8,VALID,0,
2013-08-31, 00:46:04,VALID,916.983,VALID,0,VALID,96.8098,VALID,0,VALID,20.8746,VALID,8,VALID,0,
2013-08-31, 00:47:04,VALID,916.988,VALID,0,VALID,96.8174,VALID,0,VALID,20.8746,VALID,8,VALID,0,
2013-08-31, 00:48:04,VALID,916.987,VALID,0,VALID,96.7945,VALID,0,VALID,20.8925,VALID,8,VALID,0,
2013-08-31, 00:49:04,VALID,916.921,VALID,0,VALID,96.7945,VALID,0,VALID,20.8925,VALID,8,VALID,0,
2013-08-31, 00:50:04,VALID,916.894,VALID,0,VALID,96.8174,VALID,0,VALID,20.834,VALID,8,VALID,0,
2013-08-31, 00:51:04,VALID,916.875,VALID,0,VALID,96.825,VALID,0,VALID,20.8145,VALID,8,VALID,0,
2013-08-31, 00:52:04,VALID,916.854,VALID,0,VALID,96.825,VALID,0,VALID,20.8161,VALID,8,VALID,0,
2013-08-31, 00:53:04,VALID,916.872,VALID,0,VALID,96.825,VALID,0,VALID,20.795,VALID,8,VALID,0,
2013-08-31, 00:54:04,VALID,916.866,VALID,0,VALID,96.825,VALID,0,VALID,20.795,VALID,8,VALID,0,
2013-08-31, 00:55:04,VALID,916.856,VALID,0,VALID,96.8174,VALID,0,VALID,20.8145,VALID,8,VALID,0,
2013-08-31, 00:56:04,VALID,916.816,VALID,0,VALID,96.825,VALID,0,VALID,20.7755,VALID,8,VALID,0,
2013-08-31, 00:57:04,VALID,916.821,VALID,0,VALID,96.8326,VALID,0,VALID,20.7755,VALID,8,VALID,0,
2013-08-31, 00:58:04,VALID,916.812,VALID,0,VALID,96.8326,VALID,0,VALID,20.795,VALID,8,VALID,0,
2013-08-31, 00:59:04,VALID,916.798,VALID,0,VALID,96.8326,VALID,0,VALID,20.756,VALID,8,VALID,0,
2013-08-31, 01:00:04,VALID,916.771,VALID,0,VALID,96.825,VALID,0,VALID,20.8145,VALID,8,VALID,0,
2013-08-31, 01:01:04,VALID,916.755,VALID,0,VALID,96.8326,VALID,0,VALID,20.795,VALID,8,VALID,0,
2013-08-31, 01:02:04,VALID,916.722,VALID,0,VALID,96.8403,VALID,0,VALID,20.8145,VALID,8,VALID,0,
2013-08-31, 01:03:04,VALID,916.708,VALID,0,VALID,96.8403,VALID,0,VALID,20.8145,VALID,8,VALID,0,
2013-08-31, 01:04:04,VALID,916.679,VALID,0,VALID,96.8326,VALID,0,VALID,20.756,VALID,8,VALID,0,
2013-08-31, 01:05:04,VALID,916.668,VALID,0,VALID,96.8479,VALID,0,VALID,20.7365,VALID,318,VALID,0,
2013-08-31, 01:06:04,VALID,916.672,VALID,0,VALID,96.8479,VALID,0,VALID,20.756,VALID,318,VALID,0,
2013-08-31, 01:07:04,VALID,916.671,VALID,0,VALID,96.8555,VALID,0,VALID,20.717,VALID,267,VALID,0,
2013-08-31, 01:08:04,VALID,916.642,VALID,0,VALID,96.825,VALID,0,VALID,20.6975,VALID,249,VALID,0,
2013-08-31, 01:09:04,VALID,916.666,VALID,0,VALID,96.8555,VALID,0,VALID,20.7185,VALID,249,VALID,0,
2013-08-31, 01:10:04,VALID,916.68,VALID,0,VALID,96.8555,VALID,0,VALID,20.7755,VALID,249,VALID,0,
2013-08-31, 01:11:04,VALID,916.674,VALID,0,VALID,96.8555,VALID,0,VALID,20.756,VALID,249,VALID,0,
2013-08-31, 01:12:04,VALID,916.673,VALID,0,VALID,96.8707,VALID,0,VALID,20.7755,VALID,249,VALID,0,
2013-08-31, 01:13:04,VALID,916.661,VALID,0,VALID,96.8631,VALID,0,VALID,20.7365,VALID,249,VALID,0,
2013-08-31, 01:14:04,VALID,916.672,VALID,0,VALID,96.8555,VALID,0,VALID,20.6975,VALID,249,VALID,0,
2013-08-31, 01:15:04,VALID,916.644,VALID,0,VALID,96.8631,VALID,0,VALID,20.678,VALID,249,VALID,0,
2013-08-31, 01:16:04,VALID,916.569,VALID,0,VALID,96.8555,VALID,0,VALID,20.6795,VALID,251,VALID,0,
2013-08-31, 01:17:04,VALID,916.566,VALID,0,VALID,96.8631,VALID,0,VALID,20.639,VALID,251,VALID,0,
2013-08-31, 01:18:04,VALID,916.546,VALID,0,VALID,96.8555,VALID,0,VALID,20.639,VALID,249,VALID,0,
2013-08-31, 01:19:04,VALID,916.522,VALID,0,VALID,96.8784,VALID,0,VALID,20.639,VALID,249,VALID,0,
2013-08-31, 01:20:04,VALID,916.513,VALID,0,VALID,96.8707,VALID,0,VALID,20.66,VALID,249,VALID,0,
2013-08-31, 01:21:04,VALID,916.507,VALID,0,VALID,96.8936,VALID,0,VALID,20.639,VALID,249,VALID,0,
2013-08-31, 01:22:04,VALID,916.495,VALID,0,VALID,96.886,VALID,0,VALID,20.6585,VALID,249,VALID,0,
2013-08-31, 01:23:04,VALID,916.501,VALID,0,VALID,96.9012,VALID,0,VALID,20.678,VALID,249,VALID,0,
2013-08-31, 01:24:04,VALID,916.469,VALID,0,VALID,96.9012,VALID,0,VALID,20.6795,VALID,249,VALID,0,
2013-08-31, 01:25:04,VALID,916.47,VALID,0,VALID,96.886,VALID,0,VALID,20.66,VALID,249,VALID,0,
2013-08-31, 01:26:04,VALID,916.453,VALID,0,VALID,96.8784,VALID,0,VALID,20.678,VALID,249,VALID,0,
2013-08-31, 01:27:04,VALID,916.465,VALID,0,VALID,96.8936,VALID,0,VALID,20.717,VALID,249,VALID,0,
2013-08-31, 01:28:04,VALID,916.493,VALID,0,VALID,96.8936,VALID,0,VALID,20.717,VALID,249,VALID,0,
2013-08-31, 01:29:04,VALID,916.471,VALID,0,VALID,96.8936,VALID,0,VALID,20.717,VALID,255,VALID,0,
2013-08-31, 01:30:04,VALID,916.466,VALID,0,VALID,96.8936,VALID,0,VALID,20.678,VALID,255,VALID,0,
2013-08-31, 01:31:04,VALID,916.422,VALID,0,VALID,96.886,VALID,0,VALID,20.678,VALID,255,VALID,0,
2013-08-31, 01:32:04,VALID,916.382,VALID,0,VALID,96.886,VALID,0,VALID,20.639,VALID,250,VALID,0,
2013-08-31, 01:33:04,VALID,916.396,VALID,0,VALID,96.9089,VALID,0,VALID,20.6585,VALID,250,VALID,0,
2013-08-31, 01:34:04,VALID,916.385,VALID,0,VALID,96.9241,VALID,0,VALID,20.699,VALID,250,VALID,0,
2013-08-31, 01:35:04,VALID,916.346,VALID,0,VALID,96.8936,VALID,0,VALID,20.717,VALID,250,VALID,0,
2013-08-31, 01:36:04,VALID,916.351,VALID,0,VALID,96.9089,VALID,0,VALID,20.7365,VALID,250,VALID,0,
2013-08-31, 01:37:04,VALID,916.325,VALID,0,VALID,96.886,VALID,0,VALID,20.717,VALID,251,VALID,0,
2013-08-31, 01:38:04,VALID,916.327,VALID,0,VALID,96.9012,VALID,0,VALID,20.8145,VALID,279,VALID,0,
2013-08-31, 01:39:04,VALID,916.323,VALID,0,VALID,96.9012,VALID,0,VALID,20.8551,VALID,16,VALID,0,
2013-08-31, 01:40:04,VALID,916.296,VALID,0,VALID,96.9012,VALID,0,VALID,20.8551,VALID,16,VALID,0,
2013-08-31, 01:41:04,VALID,916.265,VALID,0.2,VALID,96.8936,VALID,0,VALID,20.8535,VALID,15,VALID,0,
2013-08-31, 01:42:04,VALID,916.245,VALID,0,VALID,96.8936,VALID,0,VALID,20.834,VALID,16,VALID,0,
2013-08-31, 01:43:04,VALID,916.235,VALID,0,VALID,96.8936,VALID,0,VALID,20.8145,VALID,15,VALID,0,
2013-08-31, 01:44:04,VALID,916.22,VALID,0,VALID,96.8784,VALID,0,VALID,20.8145,VALID,15,VALID,0,
2013-08-31, 01:45:04,VALID,916.166,VALID,0.2,VALID,96.9012,VALID,0,VALID,20.756,VALID,307,VALID,0,
2013-08-31, 01:46:04,VALID,916.18,VALID,0,VALID,96.9089,VALID,0,VALID,20.7966,VALID,307,VALID,0,
2013-08-31, 01:47:04,VALID,916.169,VALID,0,VALID,96.8936,VALID,0,VALID,20.795,VALID,328,VALID,0,
2013-08-31, 01:48:04,VALID,916.18,VALID,0.2,VALID,96.8936,VALID,0,VALID,20.8161,VALID,356,VALID,0,
2013-08-31, 01:49:04,VALID,916.183,VALID,0.2,VALID,96.8784,VALID,0,VALID,20.8145,VALID,20,VALID,0,
2013-08-31, 01:50:04,VALID,916.179,VALID,0,VALID,96.9241,VALID,0,VALID,20.795,VALID,24,VALID,0,
2013-08-31, 01:51:04,VALID,916.194,VALID,0,VALID,96.9317,VALID,0,VALID,20.8145,VALID,23,VALID,0,
2013-08-31, 01:52:04,VALID,916.194,VALID,0.2,VALID,96.9012,VALID,0,VALID,20.756,VALID,359,VALID,0,
2013-08-31, 01:53:04,VALID,916.164,VALID,0,VALID,96.9089,VALID,0,VALID,20.6795,INVALID,360,VALID,0,
2013-08-31, 01:54:04,VALID,916.17,VALID,0,VALID,96.9089,VALID,0,VALID,20.639,INVALID,360,VALID,0,
2013-08-31, 01:55:04,VALID,916.181,VALID,0,VALID,96.9012,VALID,0,VALID,20.639,VALID,337,VALID,0,
2013-08-31, 01:56:04,VALID,916.167,VALID,0.2,VALID,96.9165,VALID,0,VALID,20.6795,VALID,337,VALID,0,
2013-08-31, 01:57:04,VALID,916.172,VALID,0,VALID,96.9089,VALID,0,VALID,20.678,VALID,350,VALID,0,
2013-08-31, 01:58:04,VALID,916.156,VALID,0,VALID,96.9317,VALID,0,VALID,20.7365,VALID,19,VALID,0,
2013-08-31, 01:59:04,VALID,916.157,VALID,0,VALID,96.9089,VALID,0,VALID,20.7771,VALID,17,VALID,0,
2013-08-31, 02:00:04,VALID,916.157,VALID,0,VALID,96.9317,VALID,0,VALID,20.7755,VALID,35,VALID,0,
2013-08-31, 02:01:04,VALID,916.102,VALID,0,VALID,96.9241,VALID,0,VALID,20.7755,VALID,28,VALID,0,
2013-08-31, 02:02:04,VALID,916.104,VALID,0,VALID,96.9317,VALID,0,VALID,20.8145,VALID,28,VALID,0,
2013-08-31, 02:03:04,VALID,916.114,VALID,0,VALID,96.9165,VALID,0,VALID,20.8356,VALID,33,VALID,0,
2013-08-31, 02:04:04,VALID,916.108,VALID,0,VALID,96.9165,VALID,0,VALID,20.795,VALID,25,VALID,0,
2013-08-31, 02:05:04,VALID,916.116,VALID,0,VALID,96.9089,VALID,0,VALID,20.795,VALID,21,VALID,0,
2013-08-31, 02:06:04,VALID,916.045,VALID,0,VALID,96.9012,VALID,0,VALID,20.7966,VALID,24,VALID,0,
2013-08-31, 02:07:04,VALID,916.053,VALID,0,VALID,96.9165,VALID,0,VALID,20.7755,VALID,24,VALID,0,
2013-08-31, 02:08:04,VALID,916.082,VALID,0,VALID,96.9165,VALID,0,VALID,20.7755,VALID,24,VALID,0,
2013-08-31, 02:09:04,VALID,916.089,VALID,0,VALID,96.9012,VALID,0,VALID,20.7755,VALID,27,VALID,0,
2013-08-31, 02:10:04,VALID,916.092,VALID,0,VALID,96.9394,VALID,0,VALID,20.795,VALID,51,VALID,0,
2013-08-31, 02:11:04,VALID,916.077,VALID,0,VALID,96.9241,VALID,0,VALID,20.8145,VALID,50,VALID,0,
2013-08-31, 02:12:04,VALID,916.112,VALID,0,VALID,96.9317,VALID,0,VALID,20.756,VALID,50,VALID,0,
2013-08-31, 02:13:04,VALID,916.08,VALID,0,VALID,96.9165,VALID,0,VALID,20.7365,VALID,50,VALID,0,
2013-08-31, 02:14:04,VALID,916.044,VALID,0,VALID,96.9394,VALID,0,VALID,20.7576,VALID,50,VALID,0,
2013-08-31, 02:15:04,VALID,916.048,VALID,0,VALID,96.9546,VALID,0,VALID,20.678,VALID,50,VALID,0,
2013-08-31, 02:16:04,VALID,916.042,VALID,0,VALID,96.9241,VALID,0,VALID,20.717,VALID,50,VALID,0,
2013-08-31, 02:17:04,VALID,916.057,VALID,0,VALID,96.9241,VALID,0,VALID,20.7381,VALID,49,VALID,0,
2013-08-31, 02:18:04,VALID,916.067,VALID,0,VALID,96.9241,VALID,0,VALID,20.7381,VALID,50,VALID,0,
2013-08-31, 02:19:04,VALID,916.033,VALID,0,VALID,96.9241,VALID,0,VALID,20.7365,VALID,50,VALID,0,
2013-08-31, 02:20:04,VALID,916.029,VALID,0,VALID,96.9241,VALID,0,VALID,20.717,VALID,40,VALID,0,
2013-08-31, 02:21:04,VALID,916.016,VALID,0,VALID,96.9317,VALID,0,VALID,20.7365,VALID,25,VALID,0,
2013-08-31, 02:22:04,VALID,916.003,VALID,0,VALID,96.9394,VALID,0,VALID,20.717,VALID,26,VALID,0,
2013-08-31, 02:23:04,VALID,916.01,VALID,0,VALID,96.9394,VALID,0,VALID,20.678,VALID,25,VALID,0,
2013-08-31, 02:24:04,VALID,916.047,VALID,0,VALID,96.9622,VALID,0,VALID,20.6194,VALID,25,VALID,0,
2013-08-31, 02:25:04,VALID,916.069,VALID,0,VALID,96.9317,VALID,0,VALID,20.6194,VALID,26,VALID,0,
2013-08-31, 02:26:04,VALID,916.083,VALID,0,VALID,96.9622,VALID,0,VALID,20.5804,VALID,12,VALID,0,
2013-08-31, 02:27:04,VALID,916.097,VALID,0,VALID,96.947,VALID,0,VALID,20.5219,VALID,356,VALID,0,
2013-08-31, 02:28:04,VALID,916.112,VALID,0,VALID,96.9546,VALID,0,VALID,20.4829,VALID,11,VALID,0,
2013-08-31, 02:29:04,VALID,916.142,VALID,0,VALID,96.9622,VALID,0,VALID,20.5219,VALID,10,VALID,0,
2013-08-31, 02:30:04,VALID,916.156,VALID,0,VALID,96.9622,VALID,0,VALID,20.5219,VALID,336,VALID,0,
2013-08-31, 02:31:04,VALID,916.141,VALID,0,VALID,96.9698,VALID,0,VALID,20.4829,VALID,354,VALID,0,
2013-08-31, 02:32:04,VALID,916.12,VALID,0,VALID,96.9622,VALID,0,VALID,20.4618,VALID,20,VALID,0,
2013-08-31, 02:33:04,VALID,916.154,VALID,0,VALID,96.9698,VALID,0,VALID,20.4829,VALID,57,VALID,0,
2013-08-31, 02:34:04,VALID,916.156,VALID,0,VALID,96.9622,VALID,0,VALID,20.5024,VALID,58,VALID,0,
2013-08-31, 02:35:04,VALID,916.11,VALID,0,VALID,96.947,VALID,0,VALID,20.4634,VALID,52,VALID,0,
2013-08-31, 02:36:04,VALID,916.126,VALID,0,VALID,96.9851,VALID,0,VALID,20.4439,VALID,54,VALID,0,
2013-08-31, 02:37:04,VALID,916.097,VALID,0,VALID,96.9775,VALID,0,VALID,20.4634,VALID,54,VALID,0,
2013-08-31, 02:38:04,VALID,916.125,VALID,0,VALID,96.9851,VALID,0,VALID,20.4439,VALID,51,VALID,0,
2013-08-31, 02:39:04,VALID,916.162,VALID,0,VALID,96.9851,VALID,0,VALID,20.4244,VALID,49,VALID,0,
2013-08-31, 02:40:04,VALID,916.123,VALID,0,VALID,96.9851,VALID,0,VALID,20.4439,VALID,19,VALID,0,
2013-08-31, 02:41:04,VALID,916.139,VALID,0,VALID,96.9927,VALID,0,VALID,20.4439,VALID,23,VALID,0,
2013-08-31, 02:42:04,VALID,916.141,VALID,0,VALID,97.0003,VALID,0,VALID,20.4845,VALID,16,VALID,0,
2013-08-31, 02:43:04,VALID,916.178,VALID,0.2,VALID,96.9927,VALID,0,VALID,20.4244,VALID,24,VALID,0,
2013-08-31, 02:44:04,VALID,916.159,VALID,0,VALID,97.0003,VALID,0,VALID,20.4439,VALID,17,VALID,0,
2013-08-31, 02:45:04,VALID,916.181,VALID,0,VALID,96.9775,VALID,0,VALID,20.4244,VALID,7,VALID,0,
2013-08-31, 02:46:04,VALID,916.212,VALID,0.2,VALID,97.0003,VALID,0,VALID,20.3869,VALID,348,VALID,0,
2013-08-31, 02:47:04,VALID,916.212,VALID,0,VALID,96.9927,VALID,0,VALID,20.3659,VALID,353,VALID,0,
2013-08-31, 02:48:04,VALID,916.182,VALID,0,VALID,97.0003,VALID,0,VALID,20.3269,VALID,48,VALID,0,
2013-08-31, 02:49:04,VALID,916.178,VALID,0,VALID,96.9927,VALID,0,VALID,20.3253,VALID,18,VALID,0,
2013-08-31, 02:50:04,VALID,916.185,VALID,0,VALID,96.9927,VALID,0,VALID,20.3448,VALID,9,VALID,0,
2013-08-31, 02:51:04,VALID,916.158,VALID,0,VALID,96.9927,VALID,0,VALID,20.3854,VALID,15,VALID,0,
2013-08-31, 02:52:04,VALID,916.131,VALID,0,VALID,97.0232,VALID,0,VALID,20.3659,VALID,22,VALID,0,
2013-08-31, 02:53:04,VALID,916.119,VALID,0,VALID,97.0003,VALID,0,VALID,20.3464,VALID,27,VALID,0,
2013-08-31, 02:54:04,VALID,916.099,VALID,0,VALID,97.0003,VALID,0,VALID,20.3659,VALID,33,VALID,0,
2013-08-31, 02:55:04,VALID,916.089,VALID,0,VALID,96.9927,VALID,0,VALID,20.3284,VALID,16,VALID,0,
2013-08-31, 02:56:04,VALID,916.072,VALID,0,VALID,96.9927,VALID,0,VALID,20.3464,VALID,10,VALID,0,
2013-08-31, 02:57:04,VALID,916.071,VALID,0,VALID,96.9927,VALID,0,VALID,20.3464,VALID,8,VALID,0,
2013-08-31, 02:58:04,VALID,916.017,VALID,0,VALID,97.0003,VALID,0,VALID,20.2879,VALID,357,VALID,0,
2013-08-31, 02:59:04,VALID,916.058,VALID,0,VALID,97.008,VALID,0,VALID,20.2894,VALID,12,VALID,0,
2013-08-31, 03:00:04,VALID,916.04,VALID,0,VALID,97.0156,VALID,0,VALID,20.2879,VALID,12,VALID,0,
2013-08-31, 03:01:04,VALID,916.043,VALID,0,VALID,97.008,VALID,0,VALID,20.3284,VALID,12,VALID,0,
2013-08-31, 03:02:04,VALID,916.027,VALID,0,VALID,97.0156,VALID,0,VALID,20.3284,VALID,1,VALID,0,
2013-08-31, 03:03:04,VALID,916.056,VALID,0,VALID,96.9927,VALID,0,VALID,20.2879,VALID,298,VALID,0,
2013-08-31, 03:04:04,VALID,916.071,VALID,0,VALID,97.0156,VALID,0,VALID,20.2098,INVALID,360,VALID,0,
2013-08-31, 03:05:04,VALID,916.033,VALID,0,VALID,97.0156,VALID,0,VALID,20.2293,VALID,347,VALID,0,
2013-08-31, 03:06:04,VALID,916.047,VALID,0,VALID,97.0156,VALID,0,VALID,20.2684,VALID,354,VALID,0,
2013-08-31, 03:07:04,VALID,916.002,VALID,0,VALID,97.0156,VALID,0,VALID,20.2684,VALID,250,VALID,0,
2013-08-31, 03:08:04,VALID,916.034,VALID,0,VALID,97.008,VALID,0,VALID,20.2489,VALID,251,VALID,0,
2013-08-31, 03:09:04,VALID,916.037,VALID,0,VALID,97.008,VALID,0,VALID,20.2293,VALID,250,VALID,0,
2013-08-31, 03:10:04,VALID,916.036,VALID,0,VALID,97.0308,VALID,0,VALID,20.2293,VALID,20,VALID,0,
2013-08-31, 03:11:04,VALID,916.049,VALID,0,VALID,97.0385,VALID,0,VALID,20.2098,VALID,16,VALID,0,
2013-08-31, 03:12:04,VALID,916.058,VALID,0,VALID,97.0156,VALID,0,VALID,20.2684,VALID,15,VALID,0,
2013-08-31, 03:13:04,VALID,916.063,VALID,0,VALID,97.0232,VALID,0,VALID,20.3074,VALID,16,VALID,0,
2013-08-31, 03:14:04,VALID,916.025,VALID,0,VALID,97.0308,VALID,0,VALID,20.2894,VALID,16,VALID,0,
2013-08-31, 03:15:04,VALID,916.027,VALID,0,VALID,97.0156,VALID,0,VALID,20.2894,VALID,1,VALID,0,
2013-08-31, 03:16:04,VALID,916.018,VALID,0,VALID,97.0308,VALID,0,VALID,20.2504,VALID,329,VALID,0,
2013-08-31, 03:17:04,VALID,916.01,VALID,0,VALID,97.0232,VALID,0,VALID,20.1708,VALID,336,VALID,0,
2013-08-31, 03:18:04,VALID,916.001,VALID,0,VALID,97.0385,VALID,0,VALID,20.1513,VALID,350,VALID,0,
2013-08-31, 03:19:04,VALID,915.962,VALID,0,VALID,97.0308,VALID,0,VALID,20.1903,VALID,356,VALID,0,
2013-08-31, 03:20:04,VALID,915.94,VALID,0,VALID,97.0232,VALID,0,VALID,20.2098,VALID,358,VALID,0,
2013-08-31, 03:21:04,VALID,915.933,VALID,0,VALID,97.0385,VALID,0,VALID,20.2504,VALID,358,VALID,0,
2013-08-31, 03:22:04,VALID,915.932,VALID,0,VALID,97.0232,VALID,0,VALID,20.2504,VALID,358,VALID,0,
2013-08-31, 03:23:04,VALID,915.944,VALID,0,VALID,97.0385,VALID,0,VALID,20.2489,VALID,358,VALID,0,
2013-08-31, 03:24:04,VALID,915.941,VALID,0,VALID,97.0232,VALID,0,VALID,20.2894,VALID,358,VALID,0,
2013-08-31, 03:25:04,VALID,915.948,VALID,0,VALID,97.0232,VALID,0,VALID,20.2684,VALID,358,VALID,0,
2013-08-31, 03:26:04,VALID,915.952,VALID,0,VALID,97.0385,VALID,0,VALID,20.2894,VALID,358,VALID,0,
2013-08-31, 03:27:04,VALID,915.974,VALID,0,VALID,97.0308,VALID,0,VALID,20.2699,VALID,358,VALID,0,
2013-08-31, 03:28:04,VALID,915.954,VALID,0,VALID,97.0308,VALID,0,VALID,20.2114,VALID,351,VALID,0,
2013-08-31, 03:29:04,VALID,915.933,VALID,0,VALID,97.0232,VALID,0.107441,VALID,20.1903,VALID,342,VALID,0,
2013-08-31, 03:30:04,VALID,915.954,VALID,0,VALID,97.0385,VALID,0.107441,VALID,20.1903,VALID,322,VALID,0,
2013-08-31, 03:31:04,VALID,915.977,VALID,0,VALID,97.0461,VALID,0.107441,VALID,20.1303,VALID,322,VALID,0,
2013-08-31, 03:32:04,VALID,915.914,VALID,0,VALID,97.0385,VALID,0,VALID,20.1513,VALID,322,VALID,0,
2013-08-31, 03:33:04,VALID,915.932,VALID,0,VALID,97.0461,VALID,0.107441,VALID,20.1498,VALID,322,VALID,0,
2013-08-31, 03:34:04,VALID,915.918,VALID,0,VALID,97.0461,VALID,0.107441,VALID,20.1498,VALID,322,VALID,0,
2013-08-31, 03:35:04,VALID,915.88,VALID,0,VALID,97.0308,VALID,0.107441,VALID,20.1303,VALID,322,VALID,0,
2013-08-31, 03:36:04,VALID,915.871,VALID,0,VALID,97.0613,VALID,0.107441,VALID,20.1708,VALID,322,VALID,0,
2013-08-31, 03:37:04,VALID,915.891,VALID,0,VALID,97.0461,VALID,0.107441,VALID,20.1693,VALID,322,VALID,0,
2013-08-31, 03:38:04,VALID,915.892,VALID,0,VALID,97.0385,VALID,0,VALID,20.1498,VALID,322,VALID,0,
2013-08-31, 03:39:04,VALID,915.84,VALID,0,VALID,97.0537,VALID,0,VALID,20.1708,VALID,322,VALID,0,
2013-08-31, 03:40:04,VALID,915.807,VALID,0,VALID,97.0385,VALID,0,VALID,20.1498,VALID,322,VALID,0,
2013-08-31, 03:41:04,VALID,915.818,VALID,0,VALID,97.0308,VALID,0,VALID,20.1318,VALID,322,VALID,0,
2013-08-31, 03:42:04,VALID,915.789,VALID,0,VALID,97.0461,VALID,0,VALID,20.1303,VALID,322,VALID,0,
2013-08-31, 03:43:04,VALID,915.814,VALID,0,VALID,97.0537,VALID,0.107441,VALID,20.1708,VALID,322,VALID,0,
2013-08-31, 03:44:04,VALID,915.835,VALID,0,VALID,97.0385,VALID,0.107441,VALID,20.1693,VALID,322,VALID,0,
2013-08-31, 03:45:04,VALID,915.825,VALID,0,VALID,97.0461,VALID,0.107441,VALID,20.2098,VALID,322,VALID,0,
2013-08-31, 03:46:04,VALID,915.809,VALID,0,VALID,97.0461,VALID,0.107441,VALID,20.1888,VALID,322,VALID,0,
2013-08-31, 03:47:04,VALID,915.772,VALID,0,VALID,97.0461,VALID,0,VALID,20.1888,VALID,322,VALID,0,
2013-08-31, 03:48:04,VALID,915.766,VALID,0,VALID,97.0461,VALID,0.107441,VALID,20.2293,VALID,322,VALID,0,
2013-08-31, 03:49:04,VALID,915.787,VALID,0,VALID,97.0385,VALID,0.107441,VALID,20.2293,VALID,322,VALID,0,
2013-08-31, 03:50:04,VALID,915.829,VALID,0,VALID,97.0385,VALID,0,VALID,20.1903,VALID,322,VALID,0,
2013-08-31, 03:51:04,VALID,915.819,VALID,0,VALID,97.0385,VALID,0.107441,VALID,20.1888,VALID,322,VALID,0,
2013-08-31, 03:52:04,VALID,915.824,VALID,0,VALID,97.0766,VALID,0,VALID,20.2293,VALID,322,VALID,0,
2013-08-31, 03:53:04,VALID,915.813,VALID,0,VALID,97.0537,VALID,0.107441,VALID,20.2098,VALID,322,VALID,0,
2013-08-31, 03:54:04,VALID,915.8,VALID,0,VALID,97.0537,VALID,0,VALID,20.1708,VALID,322,VALID,0,
2013-08-31, 03:55:04,VALID,915.782,VALID,0,VALID,97.0537,VALID,0.107441,VALID,20.1498,VALID,322,VALID,0,
2013-08-31, 03:56:04,VALID,915.732,VALID,0,VALID,97.0461,VALID,0,VALID,20.1498,VALID,321,VALID,0,
2013-08-31, 03:57:04,VALID,915.765,VALID,0,VALID,97.0613,VALID,0.107441,VALID,20.1513,VALID,253,VALID,0,
2013-08-31, 03:58:04,VALID,915.735,VALID,0.2,VALID,97.0766,VALID,0,VALID,20.1108,VALID,253,VALID,0,
2013-08-31, 03:59:04,VALID,915.725,VALID,0,VALID,97.0537,VALID,0,VALID,20.1123,VALID,253,VALID,0,
2013-08-31, 04:00:04,VALID,915.742,VALID,0,VALID,97.0766,VALID,0.107441,VALID,20.0928,VALID,253,VALID,0,